Skip Page Navigation
NASA JPL Caltech
NASA Logo - Jet Propulsion Laboratory + View the NASA Portal
+ Center for Near-Earth Object Studies
JPL Home Earth Solar System Stars & Galaxies Technology
JPL Solar System Dynamics
BODIES ORBITS EPHEMERIDES TOOLS PHYSICAL DATA DISCOVERY FAQ SITE MAP
JPL Small-Body Database Browser
Search: [ help ]  
12317 Madicampbell (1992 HH1)
Classification: Main-belt Asteroid          SPK-ID: 2012317
Ephemeris | Orbit Diagram | Orbital Elements | Mission Design | Physical Parameters | Discovery Circumstances ]

[ show orbit diagram ]
Orbital Elements at Epoch 2459000.5 (2020-May-31.0) TDB
Reference: JPL 27 (heliocentric ecliptic J2000)
 Element Value Uncertainty (1-sigma)   Units 
e .0633570857207813 4.4085e-08  
a 2.789266758003291 1.2433e-08 au
q 2.612546944918351 1.2305e-07 au
i 3.778882051182043 5.0216e-06 deg
node 213.8898760010316 5.2533e-05 deg
peri 201.6371014940025 6.1589e-05 deg
M 168.7902621137851 3.3548e-05 deg
tp 2458202.728733423100
(2018-Mar-25.22873342)
0.00015666 TDB
period 1701.506072513105
4.66
1.1376e-05
3.115e-08
d
yr
n .2115772642928533 1.4146e-09 deg/d
Q 2.965986571088231 1.322e-08 au
  Orbit Determination Parameters
   # obs. used (total)      1858  
   data-arc span      10770 days (29.49 yr)  
   first obs. used      1991-01-18  
   last obs. used      2020-07-14  
   planetary ephem.      DE431  
   SB-pert. ephem.      SB431-N16  
   condition code      0  
   norm. resid. RMS      .49328  
   source      ORB  
   producer      Otto Matic  
   solution date      2020-Nov-13 02:53:47  

Additional Information
 Earth MOID = 1.62425 au 
 Jupiter MOID = 2.26805 au 
 T_jup = 3.324 
[ hide covariance matrix ]
Orbital Elements at Epoch 2457059.5 (2015-Feb-06.0) TDB
Reference: JPL 27 (heliocentric ecliptic J2000)
 Element Value Uncertainty (1-sigma)   Units 
e .06360304945959633 4.3896e-08  
q 2.612521130049187 1.2255e-07 au
tp 2456506.618320832067
(2013-Aug-02.11832083)
0.00015353 TDB
node 213.9111987899534 5.2546e-05 deg
peri 202.8964902123396 6.1632e-05 deg
i 3.777980456998474 5.0211e-06 deg
  Orbit Determination Parameters
   # obs. used (total)      1858  
   data-arc span      10770 days (29.49 yr)  
   first obs. used      1991-01-18  
   last obs. used      2020-07-14  
   planetary ephem.      DE431  
   SB-pert. ephem.      SB431-N16  
   condition code      0  
   norm. resid. RMS      .49328  
   source      ORB  
   producer      Otto Matic  
   solution date      2020-Nov-13 02:53:47  

Additional Information
 Jupiter MOID = 2.26805 au 
 T_jup = 3.324 
Orbit Covariance (6×6)
  e q tp node peri i
e 1.926896904277059E-15 -5.355098722167699E-15 -1.440509258834355E-12 -5.816722929040475E-15 -3.443018658044401E-13 -2.031125777623604E-16
q -5.355098722167699E-15 1.501764743310377E-14 4.470166126537571E-12 1.528866540386297E-14 1.061291938555489E-12 7.032564355659383E-16
tp -1.440509258834355E-12 4.470166126537571E-12 2.357091110593958E-8 3.951151354728766E-12 4.95238143578141E-9 -3.656340588101067E-12
node -5.816722929040475E-15 1.528866540386297E-14 3.951151354728766E-12 2.761067199171001E-9 -2.753659532238883E-9 -9.664516317819847E-12
peri -3.443018658044401E-13 1.061291938555489E-12 4.95238143578141E-9 -2.753659532238883E-9 3.79846828301159E-9 8.92477310349265E-12
i -2.031125777623604E-16 7.032564355659383E-16 -3.656340588101067E-12 -9.664516317819847E-12 8.92477310349265E-12 2.521117277949283E-11

Ephemeris | Orbit Diagram | Orbital Elements | Mission Design | Physical Parameters | Discovery Circumstances ]

Physical Parameter Table
Parameter Symbol Value Units Sigma Reference Notes
absolute magnitude H 13.6   n/a MPO473933  
diameter diameter 13.102 km 0.157 urn:nasa:pds:neowise_diameters_albedos::2.0[mainbelt] (http://adsabs.harvard.edu/abs/2011ApJ...741...68M)  
rotation period rot_per 7.264 h n/a LCDB (Rev. 2019-August); Warner et al., 2009 Result based on less than full coverage, so that the period may be wrong by 30 percent or so.
Published Reference List:
[Higgins, D.; Pravec, P.; Kusnirak, P.; Galad, A.; et al. (2006) Minor Planet Bull. 33, 89-91.]
geometric albedo albedo 0.049   0.007 urn:nasa:pds:neowise_diameters_albedos::2.0[mainbelt] (http://adsabs.harvard.edu/abs/2011ApJ...741...68M)  

12317 Madicampbell           Discovered 1992 Apr. 24 by Spacewatch at Kitt Peak.
Margaret Diane Campbell (b. 1976), a Ph.D. student at the University of Western Ontario, became interested in astronomy as a young girl.
NOTE: some special characters may not display properly (any characters within {} are an attempt to place the proper accent above a character)
Reference: 20020526/MPCPages.arcLast Updated: 2003-10-02

Alternate Designations
 1992 HH1 = 1994 UT2 
Ephemeris | Orbit Diagram | Orbital Elements | Mission Design | Physical Parameters | Discovery Circumstances ]
ABOUT SSD CREDITS/AWARDS PRIVACY/COPYRIGHT GLOSSARY LINKS
FirstGov 2020-Nov-26 02:26 UT
(server date/time)  
NASA Home Page
Site Manager:   Ryan S. Park
Webmaster  Alan B. Chamberlin